Regional Weather Roundup
Issued by NWS Green Bay, WI

Home | Current Version | Previous Version | Graphics & Text | Print | Product List | Glossary Off
Versions: 1 2 3 4 5 6 7 8 9 10 11 12 13 14 15 16 17 18 19 20 21 22 23 24 25 26 27 28 29 30 31 32 33 34 35 36 37 38 39 40 41 42 43 44 45 46 47 48 49 50

000
ASUS43 KGRB 251710
RWRGRB

NORTH-CENTRAL AND NORTHEAST WISCONSIN REGIONAL WEATHER ROUNDUP
NATIONAL WEATHER SERVICE GREEN BAY WI
1100 AM CST TUE NOV 25 2014

WIZ005-009-010>012-018-019-251800-
NORTH CENTRAL WISCONSIN

CITY           SKY/WX    TMP DP  RH WIND       PRES   REMARKS
IRONWOOD       CLOUDY    18  14  86 W12       29.94R WCI   5
MANITOWISH WTR FLURRIES  17  11  78 W8        29.94R WCI   6
ARBOR VITAE    FLURRIES  19  12  76 W9        29.94R WCI   8
EAGLE RIVER    FLURRIES  19  10  70 NW7       29.92R WCI   9
LAND O LAKES   FLURRIES  20  12  71 NW7       29.92R
RHINELANDER    CLOUDY    17  10  74 W7        29.94R WCI   8
PHILLIPS       LGT SNOW  17  10  75 W6        29.97R WCI   8
ANTIGO         FLURRIES  18  12  77 NW8       29.95R WCI   8
TOMAHAWK       MOSUNNY   18  10  73 CALM      29.97R
MERRILL        FLURRIES  19  11  73 W7        29.98R WCI   9
$$

WIZ013-073-251800-
NORTHEAST WISCONSIN

CITY           SKY/WX    TMP DP  RH WIND       PRES   REMARKS
IRON MOUNTAIN  LGT SNOW  22  13  68 NW12      29.92R
MARINETTE      CLOUDY    27  16  63 NW8       29.96R
OCONTO         CLOUDY    25  18  74 NW6       29.98R
$$

WIZ017-030-035>037-045-251800-
CENTRAL WISCONSIN

CITY           SKY/WX    TMP DP  RH WIND       PRES   REMARKS
MEDFORD        FLURRIES  16  10  78 W8        29.98S WCI   5
WAUSAU         FLURRIES  19  13  77 W10       29.98R WCI   7
MOSINEE        FLURRIES  18  16  93 W9        30.00R WCI   6
MARSHFIELD     CLOUDY    18   9  68 NW9       30.01R WCI   7
WISC RAPIDS    CLOUDY    18  10  71 W9        30.04R WCI   7
STEVENS POINT  FLURRIES  18  12  78 W6        30.02R WCI   9
WAUPACA        PTSUNNY   25  17  70 W8        30.02R
SHAWANO        CLOUDY    25  18  73 W6        30.00R
CLINTONVILLE   CLOUDY    23  16  74 NW9       30.01R
$$

WIZ038-039-048-051-251800-
FOX VALLEY

CITY           SKY/WX    TMP DP  RH WIND       PRES   REMARKS
NWS GREEN BAY  CLOUDY    24  16  71 W9        30.00R
APPLETON       CLOUDY    21  18  86 W12       30.01R WCI   9
OSHKOSH        FLURRIES  22  15  75 W12       30.02R
FOND DU LAC    CLOUDY    22  14  71 W12       30.03R
$$

WIZ022-050-052-251800-
EAST CENTRAL WISCONSIN

CITY           SKY/WX    TMP DP  RH WIND       PRES   REMARKS
STURGEON BAY   CLOUDY    27  18  69 NW12      29.96R
MANITOWOC      PTSUNNY   27  21  78 W14       30.01R
SHEBOYGAN      CLOUDY    24  17  74 W15       30.01R
$$

LMZ563-521-522-541>543-251800-
LAKESHORE

STATION/POSITION TIME  TEMP    WIND        PRES    VSBY  WAVE
                       AIR SEA DIR/SP/G                  HT/PER
                 (UTC) (F)     (DEG/KT/KT) (MB)    (MI)  (FT/S)
SHEBOYGAN LKSHOR 1700   24 36  280/ 15/ 18 1017.7R
KEWAUNEE LKSHORE 1700   24     290/ 12/ 16 1014.3R
TWO RIVERS CG    1600   25                 1015.5      6   1
NORTHPORT PIER   1700   27     300/ 12/ 18 1013.9S
N MID LAKE BUOY  1700   29 42  300/ 19/ 25 1013.3R         5/ 5
SISTER BAY LKSHO 1600          320/ 20/ 22   N/A
STURGEON BAY CG  1600   28      30/  9     1015.8      6   1
CHAMBERS ISLAND  1700   26     240/  4/ 12 1014.6R
MENOMINEE LKSHOR 1700   26     270/  9/ 12 1015.3R
$$


USA.gov is the U.S. government's official web portal to all federal, state and local government web resources and services.